Change the Weather History Date:

Sunday, May 12, 2013

  Actual Average (KLAF) Record (KLAF)
Temperature  
Mean Temperature 48 °F 60 °F  
Max Temperature 57 °F 72 °F 89 °F (1985)
Min Temperature 39 °F 49 °F 32 °F (1976)
Degree Days  
Heating Degree Days 17 6  
Month to date heating degree days 86  
Since 1 July heating degree days 5576  
Cooling Degree Days 0 2  
Month to date cooling degree days 13  
Year to date cooling degree days 26  
Moisture  
Dew Point 30 °F    
Average Humidity 52    
Maximum Humidity 77    
Minimum Humidity 28    
Precipitation  
Precipitation 0.00 in 0.13 in 1.07 in (1980)
Month to date precipitation 1.56  
Year to date precipitation 11.39  
Sea Level Pressure  
Sea Level Pressure 30.09 in    
Wind  
Wind Speed 9 mph (WNW)    
Max Wind Speed 17 mph    
Max Gust Speed 26 mph    
Visibility 8 miles    
Events Rain    
T = Trace of Precipitation, MM = Missing Value Source: NWS Daily Summary

Daily Weather History Graph

Daily Weather History Graph

Search for Another Location

Airport or City:

Trip Planner

Search our weather history database for the weather conditions in past years. The results will help you decide how hot, cold, wet, or windy it might be!

Date:

Astronomy

May. 12, 2013 Rise Set
Actual Time 5:37 AM CDT 7:56 PM CDT
Civil Twilight 5:06 AM CDT 8:27 PM CDT
Nautical Twilight 4:29 AM CDT 9:05 PM CDT
Astronomical Twilight 3:47 AM CDT 9:46 PM CDT
Moon 7:32 AM CDT (5/12) 10:23 PM CDT (5/12)
Length of Visible Light 15h 20m
Length of Day
14h 19m
Waxing Crescent, 7% of the Moon is Illuminated
May 12
Waxing Crescent
May 17
First Quarter
May 24
Full
May 31
Last Quarter
Jun 8
New

Hourly Weather History & Observations

Time (CDT) Temp. Windchill Dew Point Humidity Pressure Visibility Wind Dir Wind Speed Gust Speed Precip Events Conditions
12:15 AM 44.6 °F 40.7 °F 32.5 °F 63% 30.05 in 10.0 mi NW 6.9 mph - N/A Rain Rain
12:35 AM 43.9 °F 39.9 °F 32.2 °F 63% 30.05 in 10.0 mi WNW 6.9 mph - N/A Rain Rain
12:55 AM 42.4 °F 38.8 °F 32.4 °F 68% 30.06 in 10.0 mi West 5.8 mph - N/A Rain Rain
1:15 AM 42.1 °F 38.4 °F 32.4 °F 68% 30.05 in 10.0 mi WNW 5.8 mph - N/A Rain Light Rain
1:35 AM 41.0 °F 37.1 °F 32.5 °F 72% 30.05 in 10.0 mi West 5.8 mph - N/A Rain Light Rain
1:55 AM 40.6 °F 37.5 °F 32.4 °F 72% 30.05 in 10.0 mi West 4.6 mph - N/A Rain Rain
2:15 AM 41.0 °F 37.1 °F 32.5 °F 72% 30.05 in 10.0 mi WNW 5.8 mph - N/A Rain Light Rain
2:35 AM 41.9 °F 36.9 °F 32.4 °F 69% 30.05 in 10.0 mi WNW 8.1 mph - N/A   Clear
2:55 AM 41.4 °F 36.8 °F 32.9 °F 72% 30.05 in 10.0 mi WNW 6.9 mph - N/A   Clear
3:15 AM 40.6 °F 36.0 °F 32.9 °F 74% 30.05 in 10.0 mi WNW 6.9 mph - N/A   Clear
3:35 AM 40.5 °F 35.1 °F 32.9 °F 74% 30.05 in 7.0 mi WNW 8.1 mph - N/A   Clear
3:55 AM 40.3 °F 34.9 °F 32.9 °F 75% 30.05 in 10.0 mi WNW 8.1 mph - N/A   Clear
4:15 AM 39.7 °F 34.3 °F 32.9 °F 77% 30.06 in 10.0 mi NW 8.1 mph - N/A   Clear
4:35 AM 39.6 °F 34.0 °F 32.9 °F 77% 30.06 in 10.0 mi WNW 8.1 mph - N/A   Clear
4:55 AM 39.9 °F 34.5 °F 32.0 °F 73% 30.06 in 10.0 mi NW 8.1 mph - N/A   Clear
5:15 AM 40.1 °F 34.7 °F 31.6 °F 72% 30.06 in 10.0 mi NW 8.1 mph - N/A   Clear
5:35 AM 39.6 °F 34.0 °F 31.1 °F 72% 30.07 in 10.0 mi NW 8.1 mph - N/A   Clear
5:55 AM 39.2 °F 33.6 °F 31.1 °F 73% 30.07 in 10.0 mi WNW 8.1 mph - N/A   Clear
6:15 AM 39.6 °F 34.0 °F 31.1 °F 72% 30.08 in 10.0 mi WNW 8.1 mph - N/A   Clear
6:35 AM 40.6 °F 34.3 °F 31.1 °F 69% 30.08 in 10.0 mi WNW 10.4 mph - N/A   Clear
6:55 AM 41.9 °F 36.9 °F 31.1 °F 66% 30.09 in 10.0 mi WNW 8.1 mph - N/A   Clear
7:15 AM 43.0 °F 37.7 °F 31.3 °F 63% 30.10 in 10.0 mi NW 9.2 mph - N/A   Clear
7:35 AM 43.9 °F 38.3 °F 31.3 °F 61% 30.10 in 10.0 mi NW 10.4 mph - N/A   Clear
7:55 AM 44.8 °F 38.3 °F 31.5 °F 60% 30.10 in 10.0 mi NW 13.8 mph 18.4 mph N/A   Clear
8:15 AM 45.9 °F 39.4 °F 31.6 °F 58% 30.10 in 10.0 mi NW 15.0 mph - N/A   Clear
8:35 AM 46.4 °F 40.4 °F 29.8 °F 53% 30.11 in 10.0 mi NW 13.8 mph 21.9 mph N/A   Clear
8:55 AM 47.3 °F - 30.9 °F 53% 30.11 in 10.0 mi NW 12.7 mph - N/A   Clear
9:15 AM 47.7 °F - 30.6 °F 52% 30.11 in 10.0 mi NW 12.7 mph 21.9 mph N/A   Clear
9:35 AM 48.9 °F - 29.5 °F 47% 30.11 in 10.0 mi NW 13.8 mph 19.6 mph N/A   Clear
9:55 AM 48.6 °F - 29.8 °F 48% 30.12 in 10.0 mi NW 15.0 mph 18.4 mph N/A   Scattered Clouds
10:15 AM 50.0 °F - 30.0 °F 46% 30.12 in 10.0 mi NW 12.7 mph 21.9 mph N/A   Clear
10:35 AM 49.6 °F - 28.4 °F 44% 30.13 in 10.0 mi WNW 15.0 mph 20.7 mph N/A   Scattered Clouds
10:55 AM 50.2 °F - 27.0 °F 41% 30.13 in 10.0 mi WNW 10.4 mph 23.0 mph N/A   Scattered Clouds
11:15 AM 51.4 °F - 29.7 °F 43% 30.12 in 10.0 mi WNW 15.0 mph 26.5 mph N/A   Clear
11:35 AM 51.8 °F - 28.2 °F 40% 30.13 in 7.0 mi NW 13.8 mph 19.6 mph N/A   Clear
11:55 AM 52.5 °F - 29.1 °F 41% 30.13 in 7.0 mi WNW 13.8 mph 18.4 mph N/A   Clear
12:15 PM 53.1 °F - 30.2 °F 42% 30.13 in 10.0 mi WNW 12.7 mph 18.4 mph N/A   Scattered Clouds
12:35 PM 53.8 °F - 30.4 °F 41% 30.12 in 7.0 mi NNW 13.8 mph 21.9 mph N/A   Scattered Clouds
12:55 PM 53.6 °F - 27.9 °F 37% 30.12 in 7.0 mi WNW 16.1 mph 21.9 mph N/A   Scattered Clouds
1:15 PM 55.2 °F - 30.0 °F 38% 30.12 in 7.0 mi WNW 12.7 mph 24.2 mph N/A   Clear
1:35 PM 54.3 °F - 27.5 °F 36% 30.12 in 7.0 mi NW 12.7 mph 21.9 mph N/A   Clear
1:55 PM 55.4 °F - 29.3 °F 37% 30.11 in 7.0 mi WNW 13.8 mph 24.2 mph N/A   Scattered Clouds
2:15 PM 55.6 °F - 28.6 °F 36% 30.11 in 5.0 mi West 15.0 mph 21.9 mph N/A   Haze
2:35 PM 56.1 °F - 27.1 °F 33% 30.10 in 7.0 mi WNW 12.7 mph 24.2 mph N/A   Scattered Clouds
2:55 PM 56.3 °F - 27.0 °F 32% 30.10 in 7.0 mi WNW 9.2 mph 24.2 mph N/A   Clear
3:15 PM 57.2 °F - 27.9 °F 33% 30.09 in 5.0 mi NW 15.0 mph 23.0 mph N/A   Haze
3:55 PM 57.2 °F - 28.2 °F 33% 30.09 in 5.0 mi WNW 11.5 mph 16.1 mph N/A   Haze
4:15 PM 57.0 °F - 27.0 °F 32% 30.08 in 5.0 mi WNW 11.5 mph 19.6 mph N/A   Haze
4:35 PM 57.9 °F - 27.9 °F 32% 30.08 in 7.0 mi WNW 15.0 mph 19.6 mph N/A   Scattered Clouds
4:55 PM 57.6 °F - 26.8 °F 31% 30.08 in 7.0 mi NW 17.3 mph 21.9 mph N/A   Scattered Clouds
5:15 PM 57.2 °F - 26.8 °F 31% 30.07 in 7.0 mi WNW 16.1 mph 24.2 mph N/A   Scattered Clouds
5:35 PM 57.4 °F - 25.5 °F 29% 30.07 in 7.0 mi WNW 11.5 mph 20.7 mph N/A   Clear
5:55 PM 57.4 °F - 26.6 °F 31% 30.07 in 5.0 mi West 10.4 mph - N/A   Haze
6:15 PM 56.7 °F - 23.7 °F 28% 30.07 in 7.0 mi WNW 15.0 mph 23.0 mph N/A   Clear
6:35 PM 56.3 °F - 25.7 °F 31% 30.07 in 5.0 mi WNW 12.7 mph 18.4 mph N/A   Haze
6:55 PM 55.6 °F - 24.3 °F 30% 30.07 in 7.0 mi NW 11.5 mph 19.6 mph N/A   Clear
7:15 PM 54.9 °F - 25.0 °F 32% 30.07 in 7.0 mi WNW 10.4 mph 18.4 mph N/A   Clear
7:35 PM 53.8 °F - 25.2 °F 33% 30.08 in 7.0 mi WNW 9.2 mph - N/A   Clear
7:55 PM 51.6 °F - 27.9 °F 40% 30.08 in 7.0 mi WNW 4.6 mph - N/A   Clear
8:15 PM 49.3 °F - 31.3 °F 50% 30.09 in 7.0 mi WNW 4.6 mph - N/A   Clear
8:35 PM 48.9 °F - 30.9 °F 50% 30.09 in 10.0 mi West 5.8 mph - N/A   Clear
8:55 PM 48.0 °F - 30.9 °F 52% 30.10 in 10.0 mi West 4.6 mph - N/A   Clear
9:15 PM 47.3 °F - 32.2 °F 56% 30.11 in 7.0 mi West 3.5 mph - N/A   Clear
9:35 PM 48.4 °F - 29.5 °F 48% 30.11 in 7.0 mi West 3.5 mph - N/A   Scattered Clouds
9:55 PM 48.0 °F - 30.2 °F 50% 30.11 in 7.0 mi West 4.6 mph - N/A   Clear
10:15 PM 46.4 °F 45.2 °F 32.0 °F 57% 30.11 in 7.0 mi West 3.5 mph - N/A   Clear
10:35 PM 46.2 °F 45.0 °F 32.4 °F 58% 30.11 in 10.0 mi West 3.5 mph - N/A   Clear
10:55 PM 46.0 °F 44.8 °F 32.0 °F 58% 30.11 in 7.0 mi WSW 3.5 mph - N/A   Clear
11:15 PM 45.0 °F 43.5 °F 32.9 °F 63% 30.11 in 7.0 mi WSW 3.5 mph - N/A   Clear
11:35 PM 44.6 °F 43.1 °F 33.8 °F 66% 30.11 in 7.0 mi West 3.5 mph - N/A   Clear
11:55 PM 44.2 °F 41.8 °F 33.1 °F 65% 30.11 in 7.0 mi West 4.6 mph - N/A   Clear